Location: Naloco
(16.5478°S, 37.1017°E)
Time: 02:22:44
(UTC+00:00)

Milstar 3 - Pass Details

Date: 13 August 2020
Orbit: 1101 x 5144 km, 28.2° (Epoch: 13 July)

Event Time Altitude Azimuth Distance (km) Brightness Sun altitude
Rises 16:13:27 0° 309° (NW) 3,994 6.9 -12.7°
Reaches altitude 10° 16:15:50 10° 313° (NW) 3,160 6.1 -13.3°
Maximum altitude 16:23:15 61° 32° (NNE) 1,771 3.7 -15.0°
Enters shadow 16:31:58 21° 106° (ESE) 3,969 5.0 -17.1°
